Skip Page Navigation
NASA JPL Caltech
NASA Logo - Jet Propulsion Laboratory + View the NASA Portal
+ Near-Earth Object (NEO) Program
Search JPL
JPL Home Earth Solar System Stars & Galaxies Technology
JPL Solar System Dynamics
BODIES ORBITS EPHEMERIDES TOOLS PHYSICAL DATA DISCOVERY FAQ SITE MAP
JPL Small-Body Database Browser
Search: [ help ]  
67367 (2000 LY27)
Classification: Amor [NEO, PHA]          SPK-ID: 2067367
Ephemeris | Orbit Diagram | Orbital Elements | Physical Parameters | Discovery Circumstances | Close-Approach Data ]

[ hide orbit diagram ]
Orbit Diagram
Note: Make sure you have Java enabled on your browser to see the applet. This applet is provided as a 3D orbit visualization tool. The applet was implemented using 2-body methods, and hence should not be used for determining accurate long-term trajectories (over several years or decades) or planetary encounter circumstances. For accurate long-term ephemerides, please instead use our Horizons system.
Orbit Viewer

Additional Notes: the orbits shown in the applet are color coded. The planets are white lines, and the asteroid/comet is a blue line. The bright white line indicates the portion of the orbit that is above the ecliptic plane, and the darker portion is below the ecliptic plane. Likewise for the asteroid/comet orbit, the light blue indicates the portion above the ecliptic plane, and the dark blue the portion below the ecliptic plane.

Orbit Viewer applet originally written and kindly provided by Osamu Ajiki (AstroArts), and further modified by Ron Baalke (JPL).


Orbital Elements at Epoch 2456400.5 (2013-Apr-18.0) TDB
Reference: JPL 65 (heliocentric ecliptic J2000)
 Element Value Uncertainty (1-sigma)   Units 
e .2127905896244336 7.0685e-07  
a 1.308569737810372 8.4516e-09 AU
q 1.030118411737012 9.2795e-07 AU
i 9.023743270539763 3.4581e-05 deg
node 264.5591740178847 5.1765e-05 deg
peri 184.7647266909495 7.5954e-05 deg
M 3.428378020286554 8.4775e-05 deg
tp 2456395.293091607472
(2013-Apr-12.79309161)
0.00012877 JED
period 546.7562241439991
1.50
5.297e-06
1.45e-08
d
yr
n .658428718509086 6.3788e-09 deg/d
Q 1.587021063883731 1.025e-08 AU
  Orbit Determination Parameters
   # obs. used (total)      239  
   data-arc span      13231 days (36.22 yr)  
   first obs. used      1976-05-27  
   last obs. used      2012-08-17  
   planetary ephem.      DE405  
   SB-pert. ephem.      SB405-CPV-2  
   condition code      0  
   fit RMS      .61995  
   data source      ORB  
   producer      Otto Matic  
   solution date      2013-Apr-29 15:38:21  

Additional Information
 Earth MOID = .0461532 AU 
 T_jup = 4.944 
[ show covariance matrix ]

Ephemeris | Orbit Diagram | Orbital Elements | Physical Parameters | Discovery Circumstances | Close-Approach Data ]

Physical Parameter Table
Parameter Symbol Value Units Sigma Reference Notes
absolute magnitude H 16.885 mag .77881 65 autocmod 2.5c

67367 (2000 LY27)          Discovered 2000-Jun-07 by LINEAR at Socorro (704)
Reference: 20030910/Numbers.arcLast Updated: 2004-04-19

[ show close-approach data ]
Ephemeris | Orbit Diagram | Orbital Elements | Physical Parameters | Discovery Circumstances | Close-Approach Data ]
ABOUT SSD CREDITS/AWARDS PRIVACY/COPYRIGHT GLOSSARY LINKS
FirstGov 2013-May-27 02:55 UT
(server date/time)  
NASA Home Page
Site Manager:   Donald K. Yeomans
Webmaster  Alan B. Chamberlin